This is the latest recevied weather packets stored in our database for station/object CT2IRJ-11. If no packets are shown the sender has not sent any weather packets the latest 1 day(s).
| Time | Temp. | Humidity | Pressure | Rain* | Wind** | Luminosity | Snow |
|---|---|---|---|---|---|---|---|
| 1778089410 | 20.56° C | 49% | 1010.5 hPa | 0 mm | - | 58 W/m² | - |
| 1778088810 | 21.11° C | 48% | 1010.5 hPa | 0 mm | - | 98 W/m² | - |
| 1778087910 | 22.22° C | 47% | 1010.5 hPa | 0 mm | - | 220 W/m² | - |
| 1778087010 | 22.78° C | 47% | 1010.5 hPa | 0 mm | - | 262 W/m² | - |
| 1778086710 | 23.33° C | 47% | 1010.5 hPa | 0 mm | - | 109 W/m² | - |
| 1778086410 | 22.78° C | 47% | 1010.8 hPa | 0 mm | - | 232 W/m² | - |
| 1778084010 | 23.89° C | 45% | 1010.5 hPa | 0 mm | - | 447 W/m² | - |
| 1778082809 | 23.89° C | 46% | 1010.8 hPa | 0 mm | - | 543 W/m² | - |
| 1778082510 | 23.89° C | 44% | 1010.8 hPa | 0 mm | - | 491 W/m² | - |
| 1778081310 | 23.89° C | 49% | 1010.8 hPa | 0 mm | - | 629 W/m² | - |
| 1778080710 | 23.33° C | 49% | 1010.8 hPa | 0 mm | - | 540 W/m² | - |
| 1778080411 | 23.33° C | 48% | 1011.2 hPa | 0 mm | - | 559 W/m² | - |
| 1778079810 | 21.67° C | 52% | 1011.2 hPa | 0 mm | - | 623 W/m² | - |
| 1778078310 | 23.89° C | 46% | 1011.5 hPa | 0 mm | - | 276 W/m² | - |
| 1778077110 | 21.67° C | 50% | 1011.9 hPa | 0 mm | - | 188 W/m² | - |
| 1778076510 | 21.11° C | 51% | 1011.9 hPa | 0 mm | - | 199 W/m² | - |
| 1778076212 | 21.67° C | 51% | 1011.9 hPa | 0 mm | - | 184 W/m² | - |
| 1778075910 | 21.11° C | 49% | 1011.9 hPa | 0 mm | - | 188 W/m² | - |
| 1778074710 | 22.22° C | 46% | 1012.2 hPa | 0 mm | - | 245 W/m² | - |
| 1778074410 | 22.78° C | 45% | 1011.9 hPa | 0 mm | - | 224 W/m² | - |
| 1778074110 | 22.78° C | 44% | 1011.9 hPa | 0 mm | - | 234 W/m² | - |
| 1778073210 | 24.44° C | 43% | 1012.5 hPa | 0 mm | - | 751 W/m² | - |
| 1778072610 | 23.33° C | 45% | 1012.5 hPa | 0 mm | - | 843 W/m² | - |
| 1778072010 | 23.89° C | 44% | 1012.2 hPa | 0 mm | - | 801 W/m² | - |
| 1778071710 | 24.44° C | 42% | 1012.5 hPa | 0 mm | - | 817 W/m² | - |
* Rain latest hour (hover to see other rain measurements)
** Current wind speed in m/s (hover to see current wind gust speed)